This demonstration page uses our WeatherBlox Daily Observations layout. Learn more.

Left ArrowRight Arrow

38.88101, -77.10428

Hourly Observations for May 29, 2016

Temp ( °F °C ) Dew Point ( °F °C ) Humidity (%) Winds ( mph kmh ) Pressure ( in mb ) Visibility ( mi km ) Precip ( " mm )
12:52 am 00:52 Partly Cloudy 71 21.7 63 17.2 76 76 S 8 13 30.15 1021 10 16 0.00 0.00
1:52 am 01:52 Mostly Cloudy 70 21.1 64 17.8 82 82 S 6 9 30.14 1021 10 16 0.00 0.00
2:52 am 02:52 Mostly Cloudy 69 20.6 62 16.7 78 78 S 5 7 30.13 1020 10 16 0.00 0.00
3:52 am 03:52 Mostly Cloudy 68 20 62 16.7 81 81 SSW 5 7 30.13 1020 10 16 0.00 0.00
4:52 am 04:52 Mostly Cloudy 67 19.4 63 17.2 87 87 S 3 6 30.14 1021 10 16 0.00 0.00
5:52 am 05:52 Mostly Cloudy 67 19.4 62 16.7 84 84 Calm 30.14 1021 10 16 0.00 0.00
6:52 am 06:52 Mostly Cloudy 68 20 63 17.2 84 84 Calm 30.15 1021 10 16 0.00 0.00
7:52 am 07:52 Mostly Cloudy 70 21.1 64 17.8 82 82 S 6 9 30.15 1021 10 16 0.00 0.00
8:52 am 08:52 Mostly Cloudy 73 22.8 66 18.9 79 79 SSE 7 11 30.15 1021 10 16 0.00 0.00
9:52 am 09:52 Mostly Cloudy 76 24.4 67 19.4 74 74 SSE 8 13 30.14 1021 10 16 0.00 0.00
10:52 am 10:52 Mostly Cloudy 77 25 68 20 74 74 S 8 13 30.14 1021 10 16 0.00 0.00
11:52 am 11:52 Mostly Cloudy 81 27.2 68 20 65 65 S 7 11 30.13 1020 10 16 0.00 0.00
12:52 pm 12:52 Mostly Cloudy 83 28.3 67 19.4 59 59 S 7 11 30.11 1020 10 16 0.00 0.00
4:27 pm 16:27 Cloudy with Light Rain 81 27 70 21 70 70 S 8 13 30.06 1018 10 16 0.00 0.00
4:52 pm 16:52 Cloudy with Light Rain 76 24.4 71 21.7 85 85 SSE 14 22 30.07 1018 7 11 0.01 0.25
5:22 pm 17:22 Cloudy with Light Rain 74 23.3 72 22.2 94 94 SSE 10 17 30.09 1019 5 8 0.02 0.51
5:25 pm 17:25 Cloudy with Light Rain 73 23 72 22 94 94 SSE 10 17 30.09 1019 5 8 0.00 0.00
5:50 pm 17:50 Cloudy with Rain 73 23 72 22 94 94 ESE 12 19 30.09 1019 4 6 0.00 0.00
5:52 pm 17:52 Cloudy with Rain 74 23.3 71 21.7 91 91 ESE 9 15 30.08 1019 4 6 0.08 2.03
6:05 pm 18:05 Cloudy with Rain 73 22.8 71 21.7 94 94 SE 9 15 30.09 1019 4 6 0.04 1.02
6:08 pm 18:08 Cloudy with Rain 73 23 72 22 94 94 SE 7 11 30.09 1019 5 8 0.00 0.00
6:52 pm 18:52 Cloudy with Light Rain 73 22.8 71 21.7 94 94 SSE 5 7 30.07 1018 6 10 0.13 3.30
7:10 pm 19:10 Cloudy with Rain 73 23 72 22 94 94 S 6 9 30.09 1019 5 8 0.00 0.00
7:25 pm 19:25 Cloudy with Heavy Rain 71 21.7 68 20 90 90 Calm 30.06 1018 2 3 0.07 1.78
7:27 pm 19:27 Cloudy with Heavy Rain 71 21.7 68 20 90 90 SW 3 6 30.06 1018 2 3 0.08 2.03
7:35 pm 19:35 Cloudy with Rain 71 21.7 68 20 90 90 WSW 6 9 30.09 1019 3 4 0.11 2.79
7:37 pm 19:37 Cloudy with Light Rain 71 21.7 68 20 90 90 WSW 6 9 30.06 1018 3 5 0.12 3.05
7:52 pm 19:52 Cloudy with Light Rain 71 21.7 69 20.6 94 94 SSW 6 9 30.07 1018 9 14 0.13 3.30
7:54 pm 19:54 Cloudy with Light Rain 72 22 70 21 94 94 SSW 6 9 30.09 1019 10 16 0.00 0.00
7:59 pm 19:59 Cloudy 71 21.7 69 20.6 94 94 VRB 3 6 30.09 1019 10 16 0.00 0.03
8:05 pm 20:05 Cloudy with Light Rain 72 22.2 69 20.6 91 91 Calm 30.09 1019 10 16 0.00 0.03
8:41 pm 20:41 Cloudy with Light Rain 71 21.7 67 19.4 87 87 N 9 15 30.06 1018 10 16 0.00 0.03
8:47 pm 20:47 Cloudy with Light Rain 72 22 66 19 83 83 N 8 13 30.06 1018 10 16 0.00 0.00
8:52 pm 20:52 Cloudy with Light Rain 70 21.1 66 18.9 87 87 N 9 15 30.07 1018 10 16 0.00 0.03
9:18 pm 21:18 Cloudy 70 21 64 18 83 83 N 10 17 30.06 1018 10 16 0.00 0.00
9:41 pm 21:41 Cloudy with Light Rain 69 20.6 65 18.3 87 87 NNE 9 15 30.06 1018 10 16 0.00 0.03
9:52 pm 21:52 Cloudy with Light Rain 69 20.6 64 17.8 84 84 NNE 9 15 30.06 1018 8 13 0.01 0.25
10:52 pm 22:52 Cloudy with Light Rain 68 20 65 18.3 90 90 NE 7 11 30.06 1018 10 16 0.07 1.78
11:52 pm 23:52 Cloudy 69 20.6 65 18.3 87 87 Calm 30.06 1018 10 16 0.00 0.03

Powered by AerisWeather